Location: Newark
(43.0658°N, 122.2322°W)
Time: 18:20:11
(UTC+00:00)

STARLINK-1695 - Pass Details

Date: 21 September 2020
Orbit: 378 x 381 km, 53.0° (Epoch: 28 October)

Event Time Altitude Azimuth Distance (km) Brightness Sun altitude
Exits shadow 12:09:07 15° 338° (NNW) 1,217 5.4 -19.9°
Maximum altitude 12:09:46 16° 353° (N) 1,186 5.5 -19.8°
Drops below altitude 10° 12:11:52 10° 32° (NNE) 1,481 6.5 -19.4°
Sets 12:14:35 0° 56° (NE) 2,345 8.3 -18.9°
